Location: Briis
(48.6240°N, 2.1211°E)
Time: 07:41:57
(UTC+00:00)

Meteor 1-5 Rocket - Pass Details

Date: 25 September 2020
Orbit: 789 x 915 km, 81.2° (Epoch: 21 October)

Event Time Altitude Azimuth Distance (km) Brightness Sun altitude
Rises 03:32:46 0° 343° (NNW) 3,302 7.4 -21.7°
Reaches altitude 10° 03:35:11 10° 338° (NNW) 2,375 6.6 -21.3°
Maximum altitude 03:40:19 49° 265° (W) 1,040 4.2 -20.5°
Enters shadow 03:42:00 36° 218° (SW) 1,261 4.6 -20.3°
